レモン-パンスターズ彗星

C/2014 W5 ( Lemmon-PanSTARRS )

English version
Home page
Updated on October 26, 2015

---------------------------------------------------------------------

・ プロフィール

発見日 2014年11月16日、20日
発見光度 19.7等、21.4等
発見者 A. D. Grauer (Mount Lemmon Survey), Pan-STARRS 1 telescope (Haleakala)

・ 写真集

・ 軌道要素

T 2016 Feb. 11.35583 TT                                 MPCW
q   2.5794165            (2000.0)            P               Q
                   Peri.  277.22021     +0.69905650     -0.50588039
                   Node   245.54305     -0.19929517     -0.81658593
e   1.0            Incl.  146.27606     -0.68673244     -0.27797921
From 34 observations 2014 Nov. 16-22.

・ 星図

・ 光度変化

        m1 = 13.0 + 5 logΔ + 10.0 log r(t + 450)

        ※ 灰色の曲線は、m1 = 10.0 + 5 logΔ + 10.0 log r の光度曲線です。

---------------------------------------------------------------------

軌道要素はM.P.E.C. 2014-W68に掲載されたものです。
星図はステラナビゲータ Ver.8 (アストロアーツ) で作成したものです。
光度グラフはComet for Windowsで作成したものです。

---------------------------------------------------------------------

Copyright(C) Seiichi Yoshida (comet@aerith.net). All rights reserved.